Cloud_Cover
100 93 16 100 95 19 5 77 90 62 44 90 100 100 100 99 100 100 100 100 100 82 91 100 15 95 87 100 99 100 100 100 100 87 100 100 100 91 100 53 100 100 100 100 100 96 100 100 100
55 25 42 6 20 8 5 5 0 4 1 1 26 46 100 100 79 100 100 100 100 86 72 76 68 87 92 100 94 100 100 100 100 83 100 100 84 100 97 27 7 43 100 100 98 93 100 96 100
42 31 63 5 5 13 4 0 0 0 0 0 4 0 2 47 99 100 100 100 100 100 99 100 87 100 100 100 90 100 100 97 100 100 100 98 25 94 95 27 7 62 74 41 93 83 100 100 100
12 33 5 5 0 2 5 1 0 0 0 0 0 0 0 0 0 11 64 100 100 100 100 100 100 100 100 100 100 100 100 100 100 100 100 26 82 100 100 100 100 100 35 13 90 100 98 100 88
13 17 5 5 4 0 0 0 0 0 0 0 0 0 3 30 0 0 0 11 79 90 100 88 47 36 56 100 100 100 100 100 100 100 100 80 100 100 100 100 100 99 56 92 93 100 99 50 60
100 4 27 3 0 0 0 14 4 0 0 0 0 0 80 40 0 0 0 4 5 18 3 62 5 3 12 100 99 100 100 100 100 100 100 100 100 100 100 100 100 43 57 99 44 98 100 43 100
100 18 4 0 0 0 0 0 8 0 0 0 0 34 79 33 0 0 0 0 0 0 0 3 44 8 12 16 100 100 100 100 100 100 100 100 100 88 98 100 93 31 75 100 100 100 11 26 34
79 3 0 0 0 0 0 0 0 0 0 0 0 0 23 7 0 0 0 0 0 0 0 13 99 22 0 33 90 100 100 100 100 100 100 97 90 88 61 93 96 77 100 100 47 31 98 11 62
4 4 2 2 0 0 0 0 0 0 0 0 0 4 0 0 0 4 29 30 6 0 0 0 21 100 22 42 100 100 100 100 100 100 100 100 100 100 100 100 97 92 99 16 5 13 100 100 61
4 4 0 4 3 0 0 0 0 0 0 0 5 44 4 0 0 24 43 36 44 15 4 3 3 13 5 18 100 100 100 100 100 100 100 100 100 100 100 99 93 82 26 5 70 100 100 11 5
55 0 3 81 4 0 0 0 0 0 0 0 0 5 5 5 5 5 9 7 12 5 0 0 5 5 5 25 46 100 100 100 100 100 100 100 100 100 100 91 100 77 5 89 100 100 15 5 63
19 55 6 24 13 0 0 0 0 0 0 0 0 0 0 5 10 5 3 0 1 5 5 5 5 5 5 5 5 86 100 100 100 100 100 100 100 100 100 100 89 88 33 100 100 23 14 100 100
6 5 60 100 8 0 3 0 0 0 0 0 0 0 0 0 5 3 5 5 3 3 71 87 5 5 5 27 5 5 59 100 100 100 100 100 100 100 100 100 42 99 100 100 100 8 24 99 54
38 5 27 100 5 0 2 0 0 0 0 0 0 0 0 0 0 0 3 6 5 5 53 100 11 5 86 99 75 63 58 100 100 100 100 100 100 100 100 100 85 90 60 57 80 7 76 100 50
5 5 56 44 18 5 3 0 0 0 0 0 0 0 0 0 0 0 0 31 5 5 49 100 60 89 78 86 90 99 16 100 100 100 100 100 100 100 80 100 77 51 100 71 15 8 93 71 38
7 5 74 74 16 5 5 2 0 0 0 0 0 0 0 0 0 0 0 5 96 3 86 100 100 100 100 100 100 100 55 100 100 100 100 100 100 96 90 99 78 98 92 86 84 21 40 55 52
37 48 5 94 99 27 11 9 5 4 0 4 0 0 0 0 0 0 0 4 58 12 38 100 100 100 100 100 98 98 100 100 100 100 100 100 100 90 100 41 40 76 47 87 63 10 44 6 30
5 40 25 18 4 100 62 71 7 74 58 2 0 0 0 0 0 0 1 5 1 7 15 100 100 100 100 100 85 100 100 100 100 100 97 100 100 98 87 82 59 5 29 55 49 32 17 12 97
4 5 66 51 97 100 64 100 6 21 20 0 0 0 2 0 0 0 0 3 5 5 5 100 100 100 100 100 88 100 100 100 100 100 100 72 89 97 95 100 100 90 100 100 84 71 45 98 95
1 5 36 64 100 100 52 90 5 62 2 5 9 12 4 16 0 0 0 0 0 5 6 4 100 98 100 100 97 99 100 89 100 100 93 88 98 100 100 99 98 100 100 97 68 100 88 73 100
6 5 32 99 97 100 100 12 0 19 0 0 5 3 3 3 4 1 0 0 0 4 2 17 40 100 100 59 84 88 96 88 100 100 100 100 100 100 100 100 100 100 94 50 5 98 10 12 38
5 4 100 92 100 99 88 4 5 0 0 0 5 5 0 3 4 5 5 5 4 1 3 5 27 12 100 83 81 94 100 98 100 99 91 100 100 100 100 96 100 7 6 6 8 96 68 13 6
3 0 5 98 100 91 34 1 5 0 0 0 0 0 0 0 0 2 2 3 14 39 6 5 48 6 5 100 12 92 52 85 99 94 95 73 99 47 73 15 12 6 92 44 54 8 6 10 3
4 5 11 88 38 95 25 1 0 0 0 0 0 3 0 0 0 0 0 0 0 1 1 0 28 19 3 28 92 39 67 100 82 100 98 100 100 94 93 100 94 30 100 99 96 38 55 14 26
2 65 100 99 24 93 12 0 0 0 0 0 0 0 0 0 0 0 0 0 0 0 0 0 0 0 0 0 5 90 81 70 98 100 98 100 100 100 100 84 99 83 75 89 98 75 100 100 35
95 100 72 100 93 71 1 0 0 0 0 0 0 0 0 0 0 0 0 0 0 0 0 0 0 0 0 0 0 5 83 75 99 17 86 100 42 70 18 5 5 5 31 99 100 100 100 100 100
28 100 53 71 95 21 0 0 0 0 0 0 0 0 0 0 0 0 0 0 0 0 0 0 0 0 0 1 0 4 2 4 5 5 5 63 72 87 5 5 14 8 5 22 97 100 100 100 100
5 100 98 80 18 20 0 0 0 0 0 0 0 0 0 0 0 0 0 0 0 0 0 0 0 4 24 27 5 4 5 5 4 5 5 100 69 5 11 19 51 5 54 99 100 100 54 99 90
2 94 94 2 96 1 0 0 1 0 0 0 0 0 0 0 0 0 0 0 0 0 0 0 0 0 33 100 100 63 76 44 6 5 99 100 100 44 29 32 94 56 23 22 97 6 17 100 100
73 16 94 2 57 19 0 1 5 5 0 0 0 0 0 0 0 0 0 0 0 0 0 0 0 0 3 79 100 77 100 68 34 72 100 100 100 78 65 100 100 100 76 66 8 7 100 100 100